Regional Weather Roundup
Issued by NWS

Home | Current Version | Previous Version | Graphics & Text | Print | Product List | Glossary On
Versions: 1 2 3 4 5 6 7 8 9 10 11 12 13 14 15 16 17 18 19 20 21 22 23 24 25 26 27 28 29 30 31 32 33 34 35 36 37 38 39 40 41 42 43 44 45 46 47 48 49 50
926
ASUS44 KMEG 220510
RWRTN
TENNESSEE HOURLY STATE WEATHER ROUNDUP
NATIONAL WEATHER SERVICE MEMPHIS TN
1200 AM CDT FRI MAY 22 2015

TNZ002-004-019-021-049-052-054-088>092-220600-
WEST TENNESSEE

CITY           SKY/WX    TMP DP  RH WIND       PRES   REMARKS
MEMPHIS INTL   CLEAR     52  45  77 NE6       30.22F
NWS MEMPHIS      N/A     47 N/A N/A MISG        N/A
JACKSON        CLEAR     45  43  93 CALM      30.22S
DYERSBURG      CLEAR     48  34  57 CALM      30.25R
PARIS          CLEAR     45  43  93 CALM      30.23S
LEXINGTON      CLEAR     46  46 100 CALM      30.20F
$$

TNZ008-025-027-028-033-062-065-066-220600-
NORTH MIDDLE TENNESSEE

CITY           SKY/WX    TMP DP  RH WIND       PRES   REMARKS
NASHVILLE      CLEAR     50  45  83 NW3       30.21S
CLARKSVILLE    CLEAR     47  45  93 CALM      30.22R
SMYRNA         CLEAR     50  46  85 N6        30.22S
COOKEVILLE     CLEAR     46  45  93 CALM      30.18S
CROSSVILLE     PTCLDY    47  44  90 N5        30.18S
$$

TNZ061-075-076-078-094-096-097-220600-
SOUTH MIDDLE TENNESSEE

CITY           SKY/WX    TMP DP  RH WIND       PRES   REMARKS
FAYETTEVILLE   CLEAR    N/A N/A N/A MISG      30.18S
TULLAHOMA      CLEAR     46  45  93 CALM      30.19S
WINCHESTER     PTCLDY    50  46  87 N5        30.18S
MCMINNVILLE    CLEAR     48  46  93 N3        30.18F
COLUMBIA       CLEAR     48  46  93 CALM      30.19S
SHELBYVILLE    CLEAR     46  46 100 CALM      30.20S
$$

TNZ017-018-042-046-047-220600-
NORTHEAST TENNESSEE

CITY           SKY/WX    TMP DP  RH WIND       PRES   REMARKS
TRI CITIES     CLOUDY    52  46  80 NW6       30.14R
ELIZABETHTON   CLOUDY    52  45  76 NW5       30.13S
$$

TNZ012-013-036-069-073-074-220600-
CENTRAL EAST TENNESSEE

CITY           SKY/WX    TMP DP  RH WIND       PRES   REMARKS
KNOXVILLE      CLOUDY    54  45  71 N10       30.15S
OAK RIDGE      CLOUDY    54  46  74 CALM      30.18S
GATLINBURG     CLOUDY    54  46  76 CALM      30.16S
MORRISTOWN     CLOUDY    52  46  82 N8        30.16S
$$

TNZ083-085-099-220600-
SOUTHEAST TENNESSEE

CITY           SKY/WX    TMP DP  RH WIND       PRES   REMARKS
CHATTANOOGA    CLOUDY    55  46  71 N8        30.16F
$$

SKY/WX REPORTED AS FAIR MEANS FEW OR NO CLOUDS BELOW
12 THOUSAND FEET.




USA.gov is the U.S. government's official web portal to all federal, state and local government web resources and services.